Year,Month,Day,Hour,Minute,Value (Times are PST for temperature in C)
2014,06,21,00,00,12.30
2014,06,21,00,01,12.30
2014,06,21,00,02,12.30
2014,06,21,00,03,12.30
2014,06,21,00,04,12.30
2014,06,21,00,05,12.30
2014,06,21,00,06,12.30
2014,06,21,00,07,12.30
2014,06,21,00,08,12.30
2014,06,21,00,09,12.30
2014,06,21,00,10,12.30
2014,06,21,00,11,12.30
2014,06,21,00,12,12.20
2014,06,21,00,13,12.20
2014,06,21,00,14,12.20
2014,06,21,00,15,12.20
2014,06,21,00,16,12.10
2014,06,21,00,17,12.10
2014,06,21,00,18,12.10
2014,06,21,00,19,12.10
2014,06,21,00,20,12.10
2014,06,21,00,21,12.00
2014,06,21,00,22,12.00
2014,06,21,00,23,12.00
2014,06,21,00,24,12.00
2014,06,21,00,25,12.00
2014,06,21,00,26,12.00
2014,06,21,00,27,12.00
2014,06,21,00,28,11.90
2014,06,21,00,29,11.90
2014,06,21,00,30,11.90
2014,06,21,00,31,11.90
2014,06,21,00,32,11.90
2014,06,21,00,33,11.90
2014,06,21,00,34,11.80
2014,06,21,00,35,11.80
2014,06,21,00,36,11.80
2014,06,21,00,37,11.80
2014,06,21,00,38,11.80
2014,06,21,00,39,11.80
2014,06,21,00,40,11.80
2014,06,21,00,41,11.80
2014,06,21,00,42,11.70
2014,06,21,00,43,11.70
2014,06,21,00,44,11.70
2014,06,21,00,45,11.70
2014,06,21,00,46,11.60
2014,06,21,00,47,11.60
2014,06,21,00,48,11.60
2014,06,21,00,49,11.60
2014,06,21,00,50,11.60
2014,06,21,00,51,11.60
2014,06,21,00,52,11.60
2014,06,21,00,53,11.60
2014,06,21,00,54,11.60
2014,06,21,00,55,11.60
2014,06,21,00,56,11.60
2014,06,21,00,57,11.60
2014,06,21,00,58,11.60
2014,06,21,00,59,11.40
2014,06,21,01,00,11.40
2014,06,21,01,01,11.40
2014,06,21,01,02,11.40
2014,06,21,01,03,11.40
2014,06,21,01,04,11.40
2014,06,21,01,05,11.40
2014,06,21,01,06,11.40
2014,06,21,01,07,11.40
2014,06,21,01,08,11.40
2014,06,21,01,09,11.40
2014,06,21,01,10,11.40
2014,06,21,01,11,11.40
2014,06,21,01,12,11.40
2014,06,21,01,13,11.40
2014,06,21,01,14,11.40
2014,06,21,01,15,11.40
2014,06,21,01,16,11.40
2014,06,21,01,17,11.30
2014,06,21,01,18,11.30
2014,06,21,01,19,11.30
2014,06,21,01,20,11.30
2014,06,21,01,21,11.20
2014,06,21,01,22,11.20
2014,06,21,01,23,11.20
2014,06,21,01,24,11.20
2014,06,21,01,25,11.20
2014,06,21,01,26,11.10
2014,06,21,01,27,11.10
2014,06,21,01,28,11.10
2014,06,21,01,29,11.10
2014,06,21,01,30,11.10
2014,06,21,01,31,11.10
2014,06,21,01,32,11.00
2014,06,21,01,33,10.90
2014,06,21,01,34,10.90
2014,06,21,01,35,10.90
2014,06,21,01,36,10.90
2014,06,21,01,37,10.90
2014,06,21,01,38,10.90
2014,06,21,01,39,10.90
2014,06,21,01,40,10.80
2014,06,21,01,41,10.80
2014,06,21,01,42,10.80
2014,06,21,01,43,10.80
2014,06,21,01,44,10.80
2014,06,21,01,45,10.70
2014,06,21,01,46,10.70
2014,06,21,01,47,10.70
2014,06,21,01,48,10.70
2014,06,21,01,49,10.70
2014,06,21,01,50,10.60
2014,06,21,01,51,10.60
2014,06,21,01,52,10.70
2014,06,21,01,53,10.70
2014,06,21,01,54,10.70
2014,06,21,01,55,10.70
2014,06,21,01,56,10.70
2014,06,21,01,57,10.70
2014,06,21,01,58,10.70
2014,06,21,01,59,10.70
2014,06,21,02,00,10.70
2014,06,21,02,01,10.70
2014,06,21,02,02,10.70
2014,06,21,02,03,10.60
2014,06,21,02,04,10.60
2014,06,21,02,05,10.70
2014,06,21,02,06,10.70
2014,06,21,02,07,10.60
2014,06,21,02,08,10.60
2014,06,21,02,09,10.60
2014,06,21,02,10,10.60
2014,06,21,02,11,10.60
2014,06,21,02,12,10.60
2014,06,21,02,13,10.60
2014,06,21,02,14,10.60
2014,06,21,02,15,10.60
2014,06,21,02,16,10.60
2014,06,21,02,17,10.60
2014,06,21,02,18,10.60
2014,06,21,02,19,10.60
2014,06,21,02,20,10.60
2014,06,21,02,21,10.60
2014,06,21,02,22,10.60
2014,06,21,02,23,10.50
2014,06,21,02,24,10.40
2014,06,21,02,25,10.40
2014,06,21,02,26,10.40
2014,06,21,02,27,10.40
2014,06,21,02,28,10.40
2014,06,21,02,29,10.40
2014,06,21,02,30,10.40
2014,06,21,02,31,10.40
2014,06,21,02,32,10.40
2014,06,21,02,33,10.40
2014,06,21,02,34,10.40
2014,06,21,02,35,10.40
2014,06,21,02,36,10.40
2014,06,21,02,37,10.40
2014,06,21,02,38,10.40
2014,06,21,02,39,10.40
2014,06,21,02,40,10.40
2014,06,21,02,41,10.40
2014,06,21,02,42,10.40
2014,06,21,02,43,10.40
2014,06,21,02,44,10.40
2014,06,21,02,45,10.40
2014,06,21,02,46,10.40
2014,06,21,02,47,10.40
2014,06,21,02,48,10.40
2014,06,21,02,49,10.40
2014,06,21,02,50,10.30
2014,06,21,02,51,10.30
2014,06,21,02,52,10.30
2014,06,21,02,53,10.30
2014,06,21,02,54,10.30
2014,06,21,02,55,10.30
2014,06,21,02,56,10.20
2014,06,21,02,57,10.20
2014,06,21,02,58,10.20
2014,06,21,02,59,10.20
2014,06,21,03,00,10.20
2014,06,21,03,01,10.20
2014,06,21,03,02,10.20
2014,06,21,03,03,10.10
2014,06,21,03,04,10.10
2014,06,21,03,05,10.10
2014,06,21,03,06,10.10
2014,06,21,03,07,10.10
2014,06,21,03,08,10.10
2014,06,21,03,09,10.10
2014,06,21,03,10,10.10
2014,06,21,03,11,10.10
2014,06,21,03,12,10.10
2014,06,21,03,13,10.10
2014,06,21,03,14,10.10
2014,06,21,03,15,10.10
2014,06,21,03,16,10.00
2014,06,21,03,17,9.90
2014,06,21,03,18,9.90
2014,06,21,03,19,9.90
2014,06,21,03,20,9.90
2014,06,21,03,21,9.90
2014,06,21,03,22,9.90
2014,06,21,03,23,9.90
2014,06,21,03,24,9.90
2014,06,21,03,25,9.90
2014,06,21,03,26,9.90
2014,06,21,03,27,9.80
2014,06,21,03,28,9.80
2014,06,21,03,29,9.80
2014,06,21,03,30,9.70
2014,06,21,03,31,9.70
2014,06,21,03,32,9.70
2014,06,21,03,33,9.70
2014,06,21,03,34,9.70
2014,06,21,03,35,9.60
2014,06,21,03,36,9.60
2014,06,21,03,37,9.60
2014,06,21,03,38,9.50
2014,06,21,03,39,9.50
2014,06,21,03,40,9.50
2014,06,21,03,41,9.40
2014,06,21,03,42,9.40
2014,06,21,03,43,9.40
2014,06,21,03,44,9.40
2014,06,21,03,45,9.40
2014,06,21,03,46,9.40
2014,06,21,03,47,9.30
2014,06,21,03,48,9.30
2014,06,21,03,49,9.30
2014,06,21,03,50,9.30
2014,06,21,03,51,9.30
2014,06,21,03,52,9.30
2014,06,21,03,53,9.30
2014,06,21,03,54,9.20
2014,06,21,03,55,9.20
2014,06,21,03,56,9.20
2014,06,21,03,57,9.20
2014,06,21,03,58,9.20
2014,06,21,03,59,9.20
2014,06,21,04,00,9.10
2014,06,21,04,01,9.10
2014,06,21,04,02,9.10
2014,06,21,04,03,9.10
2014,06,21,04,04,9.10
2014,06,21,04,05,9.10
2014,06,21,04,06,9.10
2014,06,21,04,07,9.00
2014,06,21,04,08,9.00
2014,06,21,04,09,9.00
2014,06,21,04,10,9.00
2014,06,21,04,11,9.00
2014,06,21,04,12,8.90
2014,06,21,04,13,8.90
2014,06,21,04,14,8.90
2014,06,21,04,15,8.90
2014,06,21,04,16,8.90
2014,06,21,04,17,8.80
2014,06,21,04,18,8.80
2014,06,21,04,19,8.80
2014,06,21,04,20,8.80
2014,06,21,04,21,8.80
2014,06,21,04,22,8.80
2014,06,21,04,23,8.80
2014,06,21,04,24,8.80
2014,06,21,04,25,8.80
2014,06,21,04,26,8.70
2014,06,21,04,27,8.70
2014,06,21,04,28,8.70
2014,06,21,04,29,8.70
2014,06,21,04,30,8.70
2014,06,21,04,31,8.70
2014,06,21,04,32,8.60
2014,06,21,04,33,8.60
2014,06,21,04,34,8.60
2014,06,21,04,35,8.50
2014,06,21,04,36,8.50
2014,06,21,04,37,8.50
2014,06,21,04,38,8.50
2014,06,21,04,39,8.50
2014,06,21,04,40,8.60
2014,06,21,04,41,8.60
2014,06,21,04,42,8.60
2014,06,21,04,43,8.60
2014,06,21,04,44,8.50
2014,06,21,04,45,8.50
2014,06,21,04,46,8.50
2014,06,21,04,47,8.50
2014,06,21,04,48,8.50
2014,06,21,04,49,8.60
2014,06,21,04,50,8.60
2014,06,21,04,51,8.60
2014,06,21,04,52,8.60
2014,06,21,04,53,8.60
2014,06,21,04,54,8.50
2014,06,21,04,55,8.50
2014,06,21,04,56,8.50
2014,06,21,04,57,8.50
2014,06,21,04,58,8.40
2014,06,21,04,59,8.40
2014,06,21,05,00,8.40
2014,06,21,05,01,8.40
2014,06,21,05,02,8.30
2014,06,21,05,03,8.30
2014,06,21,05,04,8.30
2014,06,21,05,05,8.20
2014,06,21,05,06,8.20
2014,06,21,05,07,8.20
2014,06,21,05,08,8.20
2014,06,21,05,09,8.20
2014,06,21,05,10,8.10
2014,06,21,05,11,8.10
2014,06,21,05,12,8.10
2014,06,21,05,13,8.10
2014,06,21,05,14,8.00
2014,06,21,05,15,8.00
2014,06,21,05,16,8.00
2014,06,21,05,17,8.00
2014,06,21,05,18,8.00
2014,06,21,05,19,8.00
2014,06,21,05,20,8.00
2014,06,21,05,21,7.90
2014,06,21,05,22,7.90
2014,06,21,05,23,7.90
2014,06,21,05,24,7.90
2014,06,21,05,25,7.90
2014,06,21,05,26,7.90
2014,06,21,05,27,7.90
2014,06,21,05,28,7.90
2014,06,21,05,29,7.90
2014,06,21,05,30,7.90
2014,06,21,05,31,7.90
2014,06,21,05,32,7.90
2014,06,21,05,33,7.90
2014,06,21,05,34,7.90
2014,06,21,05,35,8.00
2014,06,21,05,36,8.00
2014,06,21,05,37,8.00
2014,06,21,05,38,8.00
2014,06,21,05,39,7.90
2014,06,21,05,40,7.90
2014,06,21,05,41,7.90
2014,06,21,05,42,7.90
2014,06,21,05,43,7.90
2014,06,21,05,44,7.90
2014,06,21,05,45,7.90
2014,06,21,05,46,7.90
2014,06,21,05,47,7.90
2014,06,21,05,48,8.00
2014,06,21,05,49,8.00
2014,06,21,05,50,8.00
2014,06,21,05,51,8.00
2014,06,21,05,52,8.10
2014,06,21,05,53,8.10
2014,06,21,05,54,8.10
2014,06,21,05,55,8.10
2014,06,21,05,56,8.10
2014,06,21,05,57,8.10
2014,06,21,05,58,8.10
2014,06,21,05,59,8.10
2014,06,21,06,00,8.10
2014,06,21,06,01,8.10
2014,06,21,06,02,8.10
2014,06,21,06,03,8.10
2014,06,21,06,04,8.10
2014,06,21,06,05,8.10
2014,06,21,06,06,8.20
2014,06,21,06,07,8.20
2014,06,21,06,08,8.20
2014,06,21,06,09,8.20
2014,06,21,06,10,8.20
2014,06,21,06,11,8.20
2014,06,21,06,12,8.30
2014,06,21,06,13,8.30
2014,06,21,06,14,8.40
2014,06,21,06,15,8.40
2014,06,21,06,16,8.50
2014,06,21,06,17,8.50
2014,06,21,06,18,8.50
2014,06,21,06,19,8.60
2014,06,21,06,20,8.60
2014,06,21,06,21,8.70
2014,06,21,06,22,8.70
2014,06,21,06,23,8.70
2014,06,21,06,24,8.80
2014,06,21,06,25,8.80
2014,06,21,06,26,8.90
2014,06,21,06,27,9.00
2014,06,21,06,28,9.00
2014,06,21,06,29,9.10
2014,06,21,06,30,9.10
2014,06,21,06,31,9.20
2014,06,21,06,32,9.20
2014,06,21,06,33,9.30
2014,06,21,06,34,9.30
2014,06,21,06,35,9.40
2014,06,21,06,36,9.40
2014,06,21,06,37,9.50
2014,06,21,06,38,9.50
2014,06,21,06,39,9.60
2014,06,21,06,40,9.60
2014,06,21,06,41,9.70
2014,06,21,06,42,9.70
2014,06,21,06,43,9.70
2014,06,21,06,44,9.80
2014,06,21,06,45,9.90
2014,06,21,06,46,9.90
2014,06,21,06,47,9.90
2014,06,21,06,48,10.00
2014,06,21,06,49,10.10
2014,06,21,06,50,10.10
2014,06,21,06,51,10.10
2014,06,21,06,52,10.20
2014,06,21,06,53,10.20
2014,06,21,06,54,10.20
2014,06,21,06,55,10.30
2014,06,21,06,56,10.40
2014,06,21,06,57,10.40
2014,06,21,06,58,10.40
2014,06,21,06,59,10.50
2014,06,21,07,00,10.60
2014,06,21,07,01,10.60
2014,06,21,07,02,10.60
2014,06,21,07,03,10.70
2014,06,21,07,04,10.80
2014,06,21,07,05,10.80
2014,06,21,07,06,10.90
2014,06,21,07,07,10.90
2014,06,21,07,08,10.90
2014,06,21,07,09,11.00
2014,06,21,07,10,11.10
2014,06,21,07,11,11.10
2014,06,21,07,12,11.10
2014,06,21,07,13,11.20
2014,06,21,07,14,11.30
2014,06,21,07,15,11.30
2014,06,21,07,16,11.40
2014,06,21,07,17,11.40
2014,06,21,07,18,11.40
2014,06,21,07,19,11.40
2014,06,21,07,20,11.50
2014,06,21,07,21,11.60
2014,06,21,07,22,11.60
2014,06,21,07,23,11.70
2014,06,21,07,24,11.70
2014,06,21,07,25,11.80
2014,06,21,07,26,11.80
2014,06,21,07,27,11.80
2014,06,21,07,28,11.80
2014,06,21,07,29,11.90
2014,06,21,07,30,11.90
2014,06,21,07,31,11.90
2014,06,21,07,32,12.00
2014,06,21,07,33,12.00
2014,06,21,07,34,12.00
2014,06,21,07,35,12.10
2014,06,21,07,36,12.10
2014,06,21,07,37,12.10
2014,06,21,07,38,12.20
2014,06,21,07,39,12.30
2014,06,21,07,40,12.30
2014,06,21,07,41,12.40
2014,06,21,07,42,12.40
2014,06,21,07,43,12.50
2014,06,21,07,44,12.50
2014,06,21,07,45,12.60
2014,06,21,07,46,12.60
2014,06,21,07,47,12.70
2014,06,21,07,48,12.70
2014,06,21,07,49,12.80
2014,06,21,07,50,12.80
2014,06,21,07,51,12.80
2014,06,21,07,52,12.80
2014,06,21,07,53,12.80
2014,06,21,07,54,12.80
2014,06,21,07,55,12.80
2014,06,21,07,56,12.90
2014,06,21,07,57,12.90
2014,06,21,07,58,12.90
2014,06,21,07,59,12.90
2014,06,21,08,00,13.00
2014,06,21,08,01,13.00
2014,06,21,08,02,13.20
2014,06,21,08,03,13.20
2014,06,21,08,04,13.30
2014,06,21,08,05,13.30
2014,06,21,08,06,13.40
2014,06,21,08,07,13.40
2014,06,21,08,08,13.50
2014,06,21,08,09,13.50
2014,06,21,08,10,13.50
2014,06,21,08,11,13.50
2014,06,21,08,12,13.50
2014,06,21,08,13,13.50
2014,06,21,08,14,13.50
2014,06,21,08,15,13.50
2014,06,21,08,16,13.50
2014,06,21,08,17,13.50
2014,06,21,08,18,13.50
2014,06,21,08,19,13.60
2014,06,21,08,20,13.70
2014,06,21,08,21,13.70
2014,06,21,08,22,13.80
2014,06,21,08,23,13.80
2014,06,21,08,24,13.80
2014,06,21,08,25,13.80
2014,06,21,08,26,13.90
2014,06,21,08,27,13.90
2014,06,21,08,28,13.90
2014,06,21,08,29,13.90
2014,06,21,08,30,13.80
2014,06,21,08,31,13.80
2014,06,21,08,32,13.80
2014,06,21,08,33,13.80
2014,06,21,08,34,13.70
2014,06,21,08,35,13.60
2014,06,21,08,36,13.60
2014,06,21,08,37,13.50
2014,06,21,08,38,13.40
2014,06,21,08,39,13.40
2014,06,21,08,40,13.40
2014,06,21,08,41,13.40
2014,06,21,08,42,13.50
2014,06,21,08,43,13.50
2014,06,21,08,44,13.50
2014,06,21,08,45,13.50
2014,06,21,08,46,13.50
2014,06,21,08,47,13.50
2014,06,21,08,48,13.50
2014,06,21,08,49,13.60
2014,06,21,08,50,13.70
2014,06,21,08,51,13.70
2014,06,21,08,52,13.80
2014,06,21,08,53,13.80
2014,06,21,08,54,13.90
2014,06,21,08,55,14.00
2014,06,21,08,56,14.00
2014,06,21,08,57,14.00
2014,06,21,08,58,14.00
2014,06,21,08,59,14.10
2014,06,21,09,00,14.00
2014,06,21,09,01,14.00
2014,06,21,09,02,14.00
2014,06,21,09,03,14.00
2014,06,21,09,04,13.90
2014,06,21,09,05,13.90
2014,06,21,09,06,13.90
2014,06,21,09,07,13.80
2014,06,21,09,08,13.70
2014,06,21,09,09,13.70
2014,06,21,09,10,13.70
2014,06,21,09,11,13.70
2014,06,21,09,12,13.70
2014,06,21,09,13,13.70
2014,06,21,09,14,13.70
2014,06,21,09,15,13.70
2014,06,21,09,16,13.70
2014,06,21,09,17,13.70
2014,06,21,09,18,13.70
2014,06,21,09,19,13.70
2014,06,21,09,20,13.70
2014,06,21,09,21,13.70
2014,06,21,09,22,13.70
2014,06,21,09,23,13.70
2014,06,21,09,24,13.60
2014,06,21,09,25,13.60
2014,06,21,09,26,13.50
2014,06,21,09,27,13.60
2014,06,21,09,28,13.50
2014,06,21,09,29,13.60
2014,06,21,09,30,13.70
2014,06,21,09,31,13.70
2014,06,21,09,32,13.70
2014,06,21,09,33,13.70
2014,06,21,09,34,13.80
2014,06,21,09,35,13.80
2014,06,21,09,36,13.80
2014,06,21,09,37,13.80
2014,06,21,09,38,13.90
2014,06,21,09,39,14.00
2014,06,21,09,40,14.10
2014,06,21,09,41,14.20
2014,06,21,09,42,14.20
2014,06,21,09,43,14.30
2014,06,21,09,44,14.30
2014,06,21,09,45,14.30
2014,06,21,09,46,14.30
2014,06,21,09,47,14.20
2014,06,21,09,48,14.20
2014,06,21,09,49,14.20
2014,06,21,09,50,14.20
2014,06,21,09,51,14.10
2014,06,21,09,52,14.10
2014,06,21,09,53,14.00
2014,06,21,09,54,14.00
2014,06,21,09,55,14.00
2014,06,21,09,56,14.00
2014,06,21,09,57,14.00
2014,06,21,09,58,14.10
2014,06,21,09,59,14.10
2014,06,21,10,00,14.10
2014,06,21,10,01,14.10
2014,06,21,10,02,14.00
2014,06,21,10,03,13.90
2014,06,21,10,04,13.80
2014,06,21,10,05,13.80
2014,06,21,10,06,13.70
2014,06,21,10,07,13.70
2014,06,21,10,08,13.70
2014,06,21,10,09,13.80
2014,06,21,10,10,13.80
2014,06,21,10,11,13.80
2014,06,21,10,12,13.90
2014,06,21,10,13,13.90
2014,06,21,10,14,13.90
2014,06,21,10,15,13.90
2014,06,21,10,16,13.90
2014,06,21,10,17,13.90
2014,06,21,10,18,14.00
2014,06,21,10,19,14.10
2014,06,21,10,20,14.20
2014,06,21,10,21,14.20
2014,06,21,10,22,14.30
2014,06,21,10,23,14.40
2014,06,21,10,24,14.50
2014,06,21,10,25,14.70
2014,06,21,10,26,14.80
2014,06,21,10,27,14.90
2014,06,21,10,28,15.10
2014,06,21,10,29,15.10
2014,06,21,10,30,15.10
2014,06,21,10,31,15.00
2014,06,21,10,32,14.90
2014,06,21,10,33,14.80
2014,06,21,10,34,14.80
2014,06,21,10,35,14.80
2014,06,21,10,36,14.80
2014,06,21,10,37,14.80
2014,06,21,10,38,14.70
2014,06,21,10,39,14.60
2014,06,21,10,40,14.60
2014,06,21,10,41,14.70
2014,06,21,10,42,14.70
2014,06,21,10,43,14.80
2014,06,21,10,44,14.80
2014,06,21,10,45,14.80
2014,06,21,10,46,14.90
2014,06,21,10,47,15.00
2014,06,21,10,48,15.10
2014,06,21,10,49,15.20
2014,06,21,10,50,15.30
2014,06,21,10,51,15.40
2014,06,21,10,52,15.30
2014,06,21,10,53,15.30
2014,06,21,10,54,15.30
2014,06,21,10,55,15.50
2014,06,21,10,56,15.60
2014,06,21,10,57,15.60
2014,06,21,10,58,15.70
2014,06,21,10,59,15.70
2014,06,21,11,00,15.70
2014,06,21,11,01,15.60
2014,06,21,11,02,15.60
2014,06,21,11,03,15.50
2014,06,21,11,04,15.60
2014,06,21,11,05,15.60
2014,06,21,11,06,15.60
2014,06,21,11,07,15.60
2014,06,21,11,08,15.60
2014,06,21,11,09,15.80
2014,06,21,11,10,15.80
2014,06,21,11,11,15.90
2014,06,21,11,12,16.00
2014,06,21,11,13,16.20
2014,06,21,11,14,16.20
2014,06,21,11,15,16.30
2014,06,21,11,16,16.50
2014,06,21,11,17,16.60
2014,06,21,11,18,16.70
2014,06,21,11,19,16.70
2014,06,21,11,20,16.70
2014,06,21,11,21,16.70
2014,06,21,11,22,16.80
2014,06,21,11,23,16.80
2014,06,21,11,24,16.90
2014,06,21,11,25,16.90
2014,06,21,11,26,16.90
2014,06,21,11,27,16.90
2014,06,21,11,28,16.90
2014,06,21,11,29,17.00
2014,06,21,11,30,17.00
2014,06,21,11,31,17.00
2014,06,21,11,32,17.00
2014,06,21,11,33,17.10
2014,06,21,11,34,17.30
2014,06,21,11,35,17.30
2014,06,21,11,36,17.30
2014,06,21,11,37,17.30
2014,06,21,11,38,17.30
2014,06,21,11,39,17.30
2014,06,21,11,40,17.40
2014,06,21,11,41,17.50
2014,06,21,11,42,17.60
2014,06,21,11,43,17.60
2014,06,21,11,44,17.60
2014,06,21,11,45,17.70
2014,06,21,11,46,17.80
2014,06,21,11,47,17.80
2014,06,21,11,48,17.80
2014,06,21,11,49,17.90
2014,06,21,11,50,17.90
2014,06,21,11,51,17.80
2014,06,21,11,52,17.80
2014,06,21,11,53,17.70
2014,06,21,11,54,17.80
2014,06,21,11,55,17.80
2014,06,21,11,56,17.90
2014,06,21,11,57,17.80
2014,06,21,11,58,17.80
2014,06,21,11,59,17.60
2014,06,21,12,00,17.60
2014,06,21,12,01,17.50
2014,06,21,12,02,17.40
2014,06,21,12,03,17.40
2014,06,21,12,04,17.40
2014,06,21,12,05,17.30
2014,06,21,12,06,17.40
2014,06,21,12,07,17.40
2014,06,21,12,08,17.50
2014,06,21,12,09,17.50
2014,06,21,12,10,17.60
2014,06,21,12,11,17.50
2014,06,21,12,12,17.50
2014,06,21,12,13,17.50
2014,06,21,12,14,17.60
2014,06,21,12,15,17.70
2014,06,21,12,16,17.80
2014,06,21,12,17,17.90
2014,06,21,12,18,18.00
2014,06,21,12,19,18.20
2014,06,21,12,20,18.20
2014,06,21,12,21,18.30
2014,06,21,12,22,18.20
2014,06,21,12,23,18.20
2014,06,21,12,24,18.20
2014,06,21,12,25,18.20
2014,06,21,12,26,18.20
2014,06,21,12,27,18.20
2014,06,21,12,28,18.20
2014,06,21,12,29,18.30
2014,06,21,12,30,18.40
2014,06,21,12,31,18.50
2014,06,21,12,32,18.50
2014,06,21,12,33,18.50
2014,06,21,12,34,18.50
2014,06,21,12,35,18.40
2014,06,21,12,36,18.40
2014,06,21,12,37,18.40
2014,06,21,12,38,18.30
2014,06,21,12,39,18.30
2014,06,21,12,40,18.30
2014,06,21,12,41,18.30
2014,06,21,12,42,18.40
2014,06,21,12,43,18.50
2014,06,21,12,44,18.60
2014,06,21,12,45,18.70
2014,06,21,12,46,18.90
2014,06,21,12,47,18.90
2014,06,21,12,48,18.90
2014,06,21,12,49,18.90
2014,06,21,12,50,19.00
2014,06,21,12,51,19.10
2014,06,21,12,52,19.10
2014,06,21,12,53,19.20
2014,06,21,12,54,19.20
2014,06,21,12,55,19.20
2014,06,21,12,56,19.30
2014,06,21,12,57,19.30
2014,06,21,12,58,19.10
2014,06,21,12,59,19.10
2014,06,21,13,00,19.00
2014,06,21,13,01,19.10
2014,06,21,13,02,19.20
2014,06,21,13,03,19.30
2014,06,21,13,04,19.40
2014,06,21,13,05,19.40
2014,06,21,13,06,19.50
2014,06,21,13,07,19.60
2014,06,21,13,08,19.60
2014,06,21,13,09,19.40
2014,06,21,13,10,19.40
2014,06,21,13,11,19.30
2014,06,21,13,12,19.20
2014,06,21,13,13,19.20
2014,06,21,13,14,19.20
2014,06,21,13,15,19.30
2014,06,21,13,16,19.20
2014,06,21,13,17,19.00
2014,06,21,13,18,19.00
2014,06,21,13,19,19.10
2014,06,21,13,20,19.10
2014,06,21,13,21,19.10
2014,06,21,13,22,19.20
2014,06,21,13,23,19.20
2014,06,21,13,24,19.20
2014,06,21,13,25,19.30
2014,06,21,13,26,19.10
2014,06,21,13,27,18.90
2014,06,21,13,28,18.90
2014,06,21,13,29,18.80
2014,06,21,13,30,18.70
2014,06,21,13,31,18.70
2014,06,21,13,32,18.70
2014,06,21,13,33,18.80
2014,06,21,13,34,19.00
2014,06,21,13,35,19.10
2014,06,21,13,36,19.10
2014,06,21,13,37,19.00
2014,06,21,13,38,18.90
2014,06,21,13,39,18.90
2014,06,21,13,40,19.00
2014,06,21,13,41,19.10
2014,06,21,13,42,19.20
2014,06,21,13,43,19.10
2014,06,21,13,44,19.00
2014,06,21,13,45,19.10
2014,06,21,13,46,19.00
2014,06,21,13,47,18.90
2014,06,21,13,48,18.90
2014,06,21,13,49,18.90
2014,06,21,13,50,19.00
2014,06,21,13,51,19.20
2014,06,21,13,52,19.30
2014,06,21,13,53,19.20
2014,06,21,13,54,19.00
2014,06,21,13,55,19.00
2014,06,21,13,56,19.10
2014,06,21,13,57,19.30
2014,06,21,13,58,19.60
2014,06,21,13,59,19.70
2014,06,21,14,00,19.90
2014,06,21,14,01,20.10
2014,06,21,14,02,20.20
2014,06,21,14,03,20.30
2014,06,21,14,04,20.40
2014,06,21,14,05,20.50
2014,06,21,14,06,20.60
2014,06,21,14,07,20.50
2014,06,21,14,08,20.40
2014,06,21,14,09,20.20
2014,06,21,14,10,20.20
2014,06,21,14,11,20.10
2014,06,21,14,12,20.10
2014,06,21,14,13,20.00
2014,06,21,14,14,19.90
2014,06,21,14,15,19.90
2014,06,21,14,16,20.00
2014,06,21,14,17,20.10
2014,06,21,14,18,20.20
2014,06,21,14,19,20.40
2014,06,21,14,20,20.50
2014,06,21,14,21,20.50
2014,06,21,14,22,20.50
2014,06,21,14,23,20.30
2014,06,21,14,24,20.00
2014,06,21,14,25,19.70
2014,06,21,14,26,19.40
2014,06,21,14,27,19.00
2014,06,21,14,28,18.90
2014,06,21,14,29,18.90
2014,06,21,14,30,18.80
2014,06,21,14,31,18.90
2014,06,21,14,32,18.80
2014,06,21,14,33,18.90
2014,06,21,14,34,19.00
2014,06,21,14,35,19.10
2014,06,21,14,36,19.10
2014,06,21,14,37,19.20
2014,06,21,14,38,19.10
2014,06,21,14,39,19.00
2014,06,21,14,40,19.10
2014,06,21,14,41,19.10
2014,06,21,14,42,19.30
2014,06,21,14,43,19.30
2014,06,21,14,44,19.40
2014,06,21,14,45,19.20
2014,06,21,14,46,19.10
2014,06,21,14,47,19.10
2014,06,21,14,48,19.20
2014,06,21,14,49,19.10
2014,06,21,14,50,19.20
2014,06,21,14,51,19.30
2014,06,21,14,52,19.50
2014,06,21,14,53,19.70
2014,06,21,14,54,19.80
2014,06,21,14,55,20.00
2014,06,21,14,56,20.10
2014,06,21,14,57,20.20
2014,06,21,14,58,20.20
2014,06,21,14,59,20.20
2014,06,21,15,00,20.10
2014,06,21,15,01,20.10
2014,06,21,15,02,20.00
2014,06,21,15,03,19.90
2014,06,21,15,04,20.00
2014,06,21,15,05,20.10
2014,06,21,15,06,20.20
2014,06,21,15,07,20.20
2014,06,21,15,08,20.20
2014,06,21,15,09,20.40
2014,06,21,15,10,20.50
2014,06,21,15,11,20.50
2014,06,21,15,12,20.60
2014,06,21,15,13,20.60
2014,06,21,15,14,20.40
2014,06,21,15,15,20.40
2014,06,21,15,16,20.40
2014,06,21,15,17,20.40
2014,06,21,15,18,20.30
2014,06,21,15,19,20.30
2014,06,21,15,20,20.40
2014,06,21,15,21,20.50
2014,06,21,15,22,20.50
2014,06,21,15,23,20.50
2014,06,21,15,24,20.50
2014,06,21,15,25,20.40
2014,06,21,15,26,20.30
2014,06,21,15,27,20.20
2014,06,21,15,28,20.20
2014,06,21,15,29,20.20
2014,06,21,15,30,20.20
2014,06,21,15,31,20.30
2014,06,21,15,32,20.30
2014,06,21,15,33,20.20
2014,06,21,15,34,20.00
2014,06,21,15,35,19.70
2014,06,21,15,36,19.50
2014,06,21,15,37,19.30
2014,06,21,15,38,19.20
2014,06,21,15,39,19.10
2014,06,21,15,40,19.10
2014,06,21,15,41,19.00
2014,06,21,15,42,18.90
2014,06,21,15,43,18.80
2014,06,21,15,44,18.90
2014,06,21,15,45,19.00
2014,06,21,15,46,19.20
2014,06,21,15,47,19.20
2014,06,21,15,48,19.40
2014,06,21,15,49,19.50
2014,06,21,15,50,19.60
2014,06,21,15,51,19.70
2014,06,21,15,52,19.80
2014,06,21,15,53,19.90
2014,06,21,15,54,19.90
2014,06,21,15,55,20.00
2014,06,21,15,56,20.10
2014,06,21,15,57,20.20
2014,06,21,15,58,20.10
2014,06,21,15,59,20.20
2014,06,21,16,00,20.10
2014,06,21,16,01,19.90
2014,06,21,16,02,19.50
2014,06,21,16,03,19.30
2014,06,21,16,04,19.00
2014,06,21,16,05,18.80
2014,06,21,16,06,18.70
2014,06,21,16,07,18.80
2014,06,21,16,08,18.70
2014,06,21,16,09,18.70
2014,06,21,16,10,18.90
2014,06,21,16,11,19.10
2014,06,21,16,12,19.20
2014,06,21,16,13,19.30
2014,06,21,16,14,19.30
2014,06,21,16,15,19.20
2014,06,21,16,16,19.10
2014,06,21,16,17,19.00
2014,06,21,16,18,18.90
2014,06,21,16,19,18.80
2014,06,21,16,20,18.80
2014,06,21,16,21,19.00
2014,06,21,16,22,19.20
2014,06,21,16,23,19.40
2014,06,21,16,24,19.60
2014,06,21,16,25,19.60
2014,06,21,16,26,19.70
2014,06,21,16,27,19.80
2014,06,21,16,28,19.90
2014,06,21,16,29,19.90
2014,06,21,16,30,19.90
2014,06,21,16,31,20.00
2014,06,21,16,32,19.90
2014,06,21,16,33,19.90
2014,06,21,16,34,19.90
2014,06,21,16,35,19.80
2014,06,21,16,36,19.80
2014,06,21,16,37,19.90
2014,06,21,16,38,19.90
2014,06,21,16,39,20.10
2014,06,21,16,40,20.10
2014,06,21,16,41,20.20
2014,06,21,16,42,20.30
2014,06,21,16,43,20.40
2014,06,21,16,44,20.60
2014,06,21,16,45,20.80
2014,06,21,16,46,20.80
2014,06,21,16,47,20.60
2014,06,21,16,48,20.50
2014,06,21,16,49,20.60
2014,06,21,16,50,20.70
2014,06,21,16,51,20.80
2014,06,21,16,52,20.90
2014,06,21,16,53,21.00
2014,06,21,16,54,21.10
2014,06,21,16,55,21.20
2014,06,21,16,56,21.20
2014,06,21,16,57,21.10
2014,06,21,16,58,21.00
2014,06,21,16,59,20.80
2014,06,21,17,00,20.70
2014,06,21,17,01,20.50
2014,06,21,17,02,20.50
2014,06,21,17,03,20.40
2014,06,21,17,04,20.40
2014,06,21,17,05,20.40
2014,06,21,17,06,20.40
2014,06,21,17,07,20.40
2014,06,21,17,08,20.40
2014,06,21,17,09,20.30
2014,06,21,17,10,20.20
2014,06,21,17,11,20.20
2014,06,21,17,12,20.20
2014,06,21,17,13,20.40
2014,06,21,17,14,20.50
2014,06,21,17,15,20.50
2014,06,21,17,16,20.70
2014,06,21,17,17,20.70
2014,06,21,17,18,20.70
2014,06,21,17,19,20.70
2014,06,21,17,20,20.70
2014,06,21,17,21,20.80
2014,06,21,17,22,20.80
2014,06,21,17,23,20.80
2014,06,21,17,24,20.80
2014,06,21,17,25,20.80
2014,06,21,17,26,20.70
2014,06,21,17,27,20.40
2014,06,21,17,28,20.30